SCP
0 0 0 0 0 0 0 0 0 0 0 0 0 0 0 0 0 0 0 -0 -0 -0 -0 -0 0 0 0 0 0 0 0 0
0 0 0 1 1 0 0 0 0 0 0 0 0 0 -0 -0 -0 0 0 0 -0 -0 0 0 0 0 0 0 0 0 0 0
0 0 0 1 1 1 1 1 1 0 0 0 0 0 -0 -0 -0 -0 -0 0 0 0 0 0 0 0 0 0 0 0 0 0
0 0 0 0 0 1 1 1 1 1 1 0 0 0 0 0 0 0 0 0 0 0 0 0 0 0 0 0 0 0 0 0
0 0 0 0 0 0 0 1 1 1 1 0 0 0 0 0 0 0 0 0 0 0 0 0 0 0 0 0 0 0 0 0
0 0 0 0 0 0 0 0 1 0 1 1 0 0 0 -0 0 0 0 0 0 0 0 0 0 0 0 0 0 0 0 0
0 0 0 0 0 0 0 0 0 0 0 0 0 0 0 0 0 0 0 0 0 0 0 0 0 0 0 -0 0 0 0 0
0 0 0 1 1 0 0 1 0 0 0 0 0 1 0 0 0 0 0 0 0 0 0 0 0 0 -0 0 0 0 0 0
0 0 0 1 1 1 0 0 0 0 0 0 0 1 2 1 1 1 0 0 0 0 0 0 0 0 0 0 0 0 0 0
0 0 1 1 1 2 0 1 1 1 0 0 1 1 1 1 2 1 1 0 0 0 0 0 0 0 0 0 0 0 0 0
0 1 1 1 3 1 1 1 2 2 1 1 1 1 2 1 3 1 1 1 1 0 0 0 0 0 0 0 0 0 0 0
0 1 2 1 2 3 1 1 3 1 1 1 1 2 3 3 4 3 1 1 1 1 1 1 0 1 0 0 0 1 0 0
0 0 0 1 1 1 1 2 1 1 1 1 1 1 4 3 4 5 3 2 1 2 1 1 1 0 0 0 1 1 1 1
0 0 1 1 1 2 2 2 2 2 2 2 2 1 4 3 2 5 5 2 4 5 4 3 1 1 1 2 2 2 2 0
0 0 0 1 3 4 3 3 3 2 2 2 2 3 4 3 2 3 2 4 6 5 3 3 4 3 4 4 1 2 2 2
0 0 0 -0 2 3 3 3 4 4 3 2 3 4 4 3 2 5 4 4 5 5 5 6 4 6 3 4 4 4 3 3
0 0 0 0 -0 1 1 4 4 5 3 3 3 4 4 4 4 5 7 6 6 4 6 9 7 4 4 6 4 3 3 3
0 0 0 0 1 0 1 3 5 5 7 3 3 4 4 4 5 4 7 7 9 7 5 8 9 6 4 7 5 2 1 1
0 0 0 0 0 0 1 1 3 3 3 3 3 3 5 6 4 5 5 8 7 8 4 9 7 7 4 4 3 2 4 2
Wind_Speed_500mb
30 33 33 38 40 39 36 33 34 37 41 38 31 24 22 22 23 22 21 19 16 13 11 9 7 6 5 5 4 5 5 5
30 30 30 40 39 38 36 32 31 36 43 40 34 27 24 25 24 22 19 16 14 12 10 9 7 4 3 3 4 6 6 7
28 30 26 39 37 38 36 33 32 38 43 41 35 29 27 27 26 24 21 17 14 12 10 8 6 5 5 6 7 8 9 10
26 28 25 39 40 39 36 33 33 39 44 42 39 34 30 30 29 26 22 20 17 14 11 8 8 8 9 10 10 11 13 13
25 25 26 38 40 42 41 39 36 39 44 46 44 40 37 34 32 28 24 20 17 16 14 12 11 11 12 14 15 15 16 17
25 28 27 32 36 38 36 43 41 41 44 47 48 46 41 37 34 32 28 27 24 21 18 16 14 14 15 16 16 23 22 13
27 29 28 32 35 36 34 36 46 44 48 51 53 52 48 39 29 29 31 30 26 24 20 17 16 17 16 10 22 28 19 7
30 31 31 36 38 37 36 35 39 38 43 48 48 51 53 36 30 30 31 35 32 28 25 20 18 13 9 13 10 13 15 17
44 41 34 36 40 41 35 37 33 39 39 40 47 54 45 47 40 35 32 22 26 26 21 23 17 18 20 13 13 14 15 16
31 41 37 36 39 45 55 40 39 42 42 39 40 47 46 42 42 39 35 33 29 26 25 23 21 19 16 14 14 16 18 20
29 30 30 36 43 41 44 53 52 51 45 45 42 43 55 45 45 40 44 37 31 29 27 25 25 22 16 16 18 18 20 21
30 31 32 37 44 54 48 50 50 48 47 44 48 50 53 61 51 48 38 40 38 39 41 35 31 31 28 22 20 19 20 23
23 27 39 42 40 45 43 41 47 48 47 51 63 61 66 72 70 65 50 45 40 43 39 35 34 29 24 22 25 21 20 22
29 28 26 35 41 42 44 42 44 46 49 47 55 51 64 77 67 70 56 59 54 58 51 48 41 37 30 32 31 26 23 16
24 22 27 33 33 40 39 41 42 44 45 48 50 55 68 74 64 65 52 51 53 47 44 43 51 50 48 36 25 23 22 14
24 18 20 28 42 39 42 47 46 51 49 49 53 56 59 60 60 73 58 60 60 57 50 52 44 40 35 38 34 32 23 21
31 29 28 26 29 31 45 51 53 51 52 52 49 53 59 57 60 66 77 69 68 55 62 60 58 43 41 43 33 26 28 26
26 32 35 34 33 33 37 47 53 54 53 52 55 54 56 64 70 76 75 79 63 64 53 63 67 54 46 39 41 31 30 38
32 33 33 32 33 39 45 39 52 60 61 63 64 61 60 62 64 72 80 83 81 66 59 64 59 58 61 46 37 39 46 43
Wind_Direction_500mb
161 167 177 178 175 178 178 180 192 199 195 194 192 190 189 188 187 184 181 177 176 175 166 169 170 170 173 172 192 221 239 258
165 170 189 184 182 183 184 181 185 195 197 197 199 200 200 200 197 194 191 189 190 190 188 187 188 197 213 232 240 253 272 275
167 171 200 187 189 191 191 189 186 191 197 202 206 210 212 210 207 202 198 199 203 209 210 208 215 230 248 266 277 283 284 284
170 170 192 190 192 196 198 199 196 194 202 208 211 216 221 218 217 212 207 205 205 214 223 237 248 260 271 278 283 292 294 292
175 177 180 187 198 199 201 203 206 206 207 212 216 219 221 222 222 220 216 216 221 221 221 229 246 263 277 290 298 300 299 293
186 185 184 186 192 195 201 209 207 209 212 214 218 221 222 222 224 225 222 223 220 228 231 235 248 265 282 291 318 318 308 308
198 197 195 190 194 192 199 211 211 210 212 213 215 218 216 214 217 215 234 230 234 239 244 253 266 279 289 338 300 317 336 321
208 204 203 197 199 193 198 209 205 206 209 213 212 214 213 209 208 216 228 227 232 240 247 256 267 294 294 264 241 281 272 274
204 199 204 209 201 199 203 211 210 203 207 208 208 215 208 200 204 211 214 230 240 228 227 216 228 240 233 249 259 252 264 272
210 226 191 212 208 209 191 211 209 208 213 208 212 217 207 210 209 214 211 206 222 215 226 222 224 227 246 246 253 267 266 267
243 229 198 215 224 214 215 200 217 213 213 209 210 216 227 213 219 216 214 215 210 216 223 229 232 227 242 240 246 260 265 268
251 241 222 225 224 233 230 221 211 213 212 217 208 215 236 224 212 216 221 221 220 221 220 220 226 236 232 242 243 242 263 274
250 241 235 232 231 230 226 223 217 222 219 214 211 224 225 233 214 230 218 227 235 240 235 229 232 223 235 240 234 225 245 264
255 250 241 236 229 231 233 223 228 224 223 224 224 226 229 230 231 227 232 233 237 247 234 236 227 228 224 222 241 231 243 265
264 252 254 224 231 224 228 232 228 232 229 225 224 226 226 230 234 228 221 228 233 222 226 229 237 235 237 228 210 238 236 240
271 279 269 258 245 228 228 229 234 229 231 230 227 227 227 234 228 222 224 224 230 224 224 238 235 229 215 210 203 211 235 261
256 271 272 265 268 246 239 238 235 238 238 237 236 233 231 233 230 220 223 220 230 233 222 223 234 221 221 212 205 210 233 258
259 270 271 274 263 260 248 239 242 238 238 237 236 237 237 232 230 224 227 225 224 230 227 234 235 215 219 216 218 220 255 249
272 271 267 273 270 266 265 250 240 240 240 240 241 242 238 240 230 230 226 231 224 226 224 229 216 214 217 223 226 237 246 254
Wind_Speed_850mb
30 33 33 38 40 39 36 33 34 37 41 38 31 24 22 22 23 22 21 19 16 13 11 9 7 6 5 5 4 5 5 5
30 30 30 40 39 38 36 32 31 36 43 40 34 27 24 25 24 22 19 16 14 12 10 9 7 4 3 3 4 6 6 7
28 30 26 39 37 38 36 33 32 38 43 41 35 29 27 27 26 24 21 17 14 12 10 8 6 5 5 6 7 8 9 10
26 28 25 39 40 39 36 33 33 39 44 42 39 34 30 30 29 26 22 20 17 14 11 8 8 8 9 10 10 11 13 13
25 25 26 38 40 42 41 39 36 39 44 46 44 40 37 34 32 28 24 20 17 16 14 12 11 11 12 14 15 15 16 17
25 28 27 32 36 38 36 43 41 41 44 47 48 46 41 37 34 32 28 27 24 21 18 16 14 14 15 16 16 23 22 13
27 29 28 32 35 36 34 36 46 44 48 51 53 52 48 39 29 29 31 30 26 24 20 17 16 17 16 10 22 28 19 7
30 31 31 36 38 37 36 35 39 38 43 48 48 51 53 36 30 30 31 35 32 28 25 20 18 13 9 13 10 13 15 17
44 41 34 36 40 41 35 37 33 39 39 40 47 54 45 47 40 35 32 22 26 26 21 23 17 18 20 13 13 14 15 16
31 41 37 36 39 45 55 40 39 42 42 39 40 47 46 42 42 39 35 33 29 26 25 23 21 19 16 14 14 16 18 20
29 30 30 36 43 41 44 53 52 51 45 45 42 43 55 45 45 40 44 37 31 29 27 25 25 22 16 16 18 18 20 21
30 31 32 37 44 54 48 50 50 48 47 44 48 50 53 61 51 48 38 40 38 39 41 35 31 31 28 22 20 19 20 23
23 27 39 42 40 45 43 41 47 48 47 51 63 61 66 72 70 65 50 45 40 43 39 35 34 29 24 22 25 21 20 22
29 28 26 35 41 42 44 42 44 46 49 47 55 51 64 77 67 70 56 59 54 58 51 48 41 37 30 32 31 26 23 16
24 22 27 33 33 40 39 41 42 44 45 48 50 55 68 74 64 65 52 51 53 47 44 43 51 50 48 36 25 23 22 14
24 18 20 28 42 39 42 47 46 51 49 49 53 56 59 60 60 73 58 60 60 57 50 52 44 40 35 38 34 32 23 21
31 29 28 26 29 31 45 51 53 51 52 52 49 53 59 57 60 66 77 69 68 55 62 60 58 43 41 43 33 26 28 26
26 32 35 34 33 33 37 47 53 54 53 52 55 54 56 64 70 76 75 79 63 64 53 63 67 54 46 39 41 31 30 38
32 33 33 32 33 39 45 39 52 60 61 63 64 61 60 62 64 72 80 83 81 66 59 64 59 58 61 46 37 39 46 43
Wind_Direction_850mb
161 167 177 178 175 178 178 180 192 199 195 194 192 190 189 188 187 184 181 177 176 175 166 169 170 170 173 172 192 221 239 258
165 170 189 184 182 183 184 181 185 195 197 197 199 200 200 200 197 194 191 189 190 190 188 187 188 197 213 232 240 253 272 275
167 171 200 187 189 191 191 189 186 191 197 202 206 210 212 210 207 202 198 199 203 209 210 208 215 230 248 266 277 283 284 284
170 170 192 190 192 196 198 199 196 194 202 208 211 216 221 218 217 212 207 205 205 214 223 237 248 260 271 278 283 292 294 292
175 177 180 187 198 199 201 203 206 206 207 212 216 219 221 222 222 220 216 216 221 221 221 229 246 263 277 290 298 300 299 293
186 185 184 186 192 195 201 209 207 209 212 214 218 221 222 222 224 225 222 223 220 228 231 235 248 265 282 291 318 318 308 308
198 197 195 190 194 192 199 211 211 210 212 213 215 218 216 214 217 215 234 230 234 239 244 253 266 279 289 338 300 317 336 321
208 204 203 197 199 193 198 209 205 206 209 213 212 214 213 209 208 216 228 227 232 240 247 256 267 294 294 264 241 281 272 274
204 199 204 209 201 199 203 211 210 203 207 208 208 215 208 200 204 211 214 230 240 228 227 216 228 240 233 249 259 252 264 272
210 226 191 212 208 209 191 211 209 208 213 208 212 217 207 210 209 214 211 206 222 215 226 222 224 227 246 246 253 267 266 267
243 229 198 215 224 214 215 200 217 213 213 209 210 216 227 213 219 216 214 215 210 216 223 229 232 227 242 240 246 260 265 268
251 241 222 225 224 233 230 221 211 213 212 217 208 215 236 224 212 216 221 221 220 221 220 220 226 236 232 242 243 242 263 274
250 241 235 232 231 230 226 223 217 222 219 214 211 224 225 233 214 230 218 227 235 240 235 229 232 223 235 240 234 225 245 264
255 250 241 236 229 231 233 223 228 224 223 224 224 226 229 230 231 227 232 233 237 247 234 236 227 228 224 222 241 231 243 265
264 252 254 224 231 224 228 232 228 232 229 225 224 226 226 230 234 228 221 228 233 222 226 229 237 235 237 228 210 238 236 240
271 279 269 258 245 228 228 229 234 229 231 230 227 227 227 234 228 222 224 224 230 224 224 238 235 229 215 210 203 211 235 261
256 271 272 265 268 246 239 238 235 238 238 237 236 233 231 233 230 220 223 220 230 233 222 223 234 221 221 212 205 210 233 258
259 270 271 274 263 260 248 239 242 238 238 237 236 237 237 232 230 224 227 225 224 230 227 234 235 215 219 216 218 220 255 249
272 271 267 273 270 266 265 250 240 240 240 240 241 242 238 240 230 230 226 231 224 226 224 229 216 214 217 223 226 237 246 254